Content
SEND FEEDBACK

Daily
Averages
Monthly
Summary
United States of America

CHAUTAUQUA, NEW YORK


Home > North America > United States > New York
Elevation: 1264 feet     Latitude: 42 17N     Longitude: 079 37W

WEATHER
 
SELECT A DAY
Number of Records: 206,017;   Date Range: 12/11/96 - 10/29/14
 
SHARE

PRINT THIS DATA

[ ← Previous Day ]
WEATHER ALMANAC - SEPTEMBER 1, 2013
[ Next Day → ]
[ °C ]   °F
Weather ElementAverageHighLow
Temperature72.2 °F79 °F (10:53 am)64.9 °F (2:53 am)
Dewpoint67.6 °F70 °F (1:53 pm)64 °F (2:53 am)
Humidity85.6 %97 % (2:53 am)72 % (10:53 am)
Barometer29.80 in29.83 in (6:07 am)29.76 in (11:53 pm)
Wind Speed7.1 mph12.7 mph (11:53 pm)
Wind Gust19.6 mph (11:53 pm)
Weather ElementAverage
Visibility9.1 mi
Wind DirectionSSW (194.3 °)

Weather ElementTotal
Precipitation0.11 in
Cooling Degree Days7 (Base 65)
Growing Degree Days22 (Base 50)
Averaged from 28 records on September 1, 2013
WEATHER CONDITIONS BREAKOUT
WIND DIRECTION BREAKOUT
WEATHER BY HOUR - SEPTEMBER 1, 2013
[ °C ]   °F
Local TimeTemperatureDewpointHumidityBarometerVisibilityWind DirectionWind SpeedGust SpeedPrecipitationEventsConditions
1:53 AM66.9 °F64.9 °F93 %29.81 in10.0 miCalmClear
2:53 AM64.9 °F64.0 °F97 %29.80 in9.0 miSSW (210°)6.9 mphClear
3:53 AM66.0 °F64.0 °F93 %29.81 in10.0 miSSW (200°)9.2 mphOvercast
4:53 AM68.0 °F64.9 °F90 %29.81 in10.0 miSSW (200°)5.8 mphOvercast
5:53 AM68.0 °F64.9 °F90 %29.82 in10.0 miCalmOvercast
6:07 AM66.2 °F64.4 °F94 %29.83 in10.0 miCalmMostly Cloudy
6:53 AM68.0 °F64.9 °F90 %29.83 in10.0 miSouth (180°)4.6 mphMostly Cloudy
7:53 AM71.1 °F66.9 °F87 %29.82 in9.0 miSSW (200°)9.2 mphMostly Cloudy
8:53 AM73.0 °F66.9 °F81 %29.83 in9.0 miWest (270°)4.6 mphClear
9:53 AM75.9 °F68.0 °F76 %29.83 in10.0 miVariable3.5 mphClear
10:53 AM79.0 °F69.1 °F72 %29.81 in10.0 miSSW (200°)9.2 mphClear
11:33 AM77.0 °F69.8 °F78 %29.81 in10.0 miWNW (290°)9.2 mphMostly Cloudy
11:45 AM77.0 °F69.8 °F78 %29.81 in10.0 miWNW (300°)8.1 mphMostly Cloudy
11:53 AM78.1 °F69.1 °F74 %29.80 in10.0 miWNW (300°)9.2 mphMostly Cloudy
12:53 PM77.0 °F69.1 °F76 %29.80 in10.0 miNNW (340°)10.4 mphMostly Cloudy
1:53 PM75.9 °F70.0 °F82 %29.80 in10.0 miVariable6.9 mphOvercast
2:53 PM79.0 °F70.0 °F74 %29.79 in10.0 miWNW (300°)8.1 mphMostly Cloudy
3:53 PM77.0 °F69.1 °F76 %29.78 in9.0 miWNW (290°)9.2 mph0.00 inRainLight Rain
4:53 PM75.0 °F69.1 °F82 %29.77 in10.0 miWest (280°)9.2 mph0.02 inMostly Cloudy
5:53 PM73.9 °F69.1 °F85 %29.78 in8.0 miSW (230°)4.6 mph0.01 inRain-ThunderstormLight Rain
6:12 PM73.4 °F69.8 °F88 %29.80 in4.0 miSSW (210°)9.2 mph0.01 inRainLight Rain
6:53 PM72.0 °F69.1 °F91 %29.78 in5.0 miSSW (200°)8.1 mph0.04 inRainLight Rain
7:53 PM71.1 °F69.1 °F93 %29.77 in5.0 miWest (280°)5.8 mph0.03 inClear
8:53 PM71.1 °F69.1 °F93 %29.79 in6.0 miSouth (190°)5.8 mphMostly Cloudy
9:53 PM69.1 °F66.9 °F93 %29.79 in10.0 miSouth (190°)11.5 mphScattered Clouds
10:53 PM69.1 °F66.9 °F93 %29.77 in10.0 miSouth (190°)8.1 mphMostly Cloudy
11:00 PM69.8 °F66.2 °F88 %29.79 in10.0 miSSW (200°)10.4 mphThunderstormScattered Clouds
11:53 PM70.0 °F66.9 °F90 %29.76 in10.0 miSouth (190°)12.7 mph19.6 mph0.00 inPartly Cloudy
Hourly data recorded from KDKK, located miles away from Chautauqua, New York







STORIES FROM OUR PARTNERS